Retour au catalogue

STARLINK-35692

ActifCommunicationsVLEO
NORAD 66513·PAYLOAD·🇺🇸 United States

Lancé Nov 15, 2025 depuis Cape Canaveral Space Force Station

Loading…

Prochains Passages (prochaines 24 heures)

TLE

FraisSource: CelesTrak SupGP

Époque: Sep 14, 2026, 23:11 UTC

1 66513C 25263AE  26257.96645833 -.00014771  00000+0 -53494-3 0  2571
2 66513  43.0038   1.9143 0001716 269.2946 121.2076 15.27588870    13

Suivez STARLINK-35692 en temps réel avec AllMySat

Download on the App Store